Waarnemingen

Advertentie
Mijn weer
Metz-Nancy-Lorraine, Frankrijk (7093): temperatuur & dauwpunt: 19.02.2018 20:00:00 - 25.02.2018 20:00:00 (CET)Metz-Nancy-Lorraine, Frankrijk (7093): windsnelheid & windstoten: 19.02.2018 20:00:00 - 25.02.2018 20:00:00 (CET)Metz-Nancy-Lorraine, Frankrijk (7093): windrichting: 19.02.2018 20:00:00 - 25.02.2018 20:00:00 (CET)Metz-Nancy-Lorraine, Frankrijk (7093): luchtdruk: 19.02.2018 20:00:00 - 25.02.2018 20:00:00 (CET)Metz-Nancy-Lorraine, Frankrijk (7093): zicht: 19.02.2018 20:00:00 - 25.02.2018 20:00:00 (CET)Metz-Nancy-Lorraine, Frankrijk (7093): Zonneschijnduur: 19.02.2018 20:00:00 - 25.02.2018 20:00:00 (CET)Metz-Nancy-Lorraine, Frankrijk (7093): neerslag: 19.02.2018 20:00:00 - 25.02.2018 20:00:00 (CET)
Datum & Tijd tt [°C] td [°C] ff [km/u] ff [kn] fx [km/u] fx [kn] dd ppp [hPa] vv [km] sd [min] rr [mm]
25.02.2018 20:00:00 -3,8 -14,9 24 13 34 19 NO 1024,5 44 0 0,0
25.02.2018 19:00:00 -3,3 -15,0 24 13 35 19 NO 1024,3 44 0 0,0
25.02.2018 18:00:00 -1,9 -16,8 25 13 41 22 ONO 1023,6 31 44 0,0
25.02.2018 17:00:00 -0,3 -16,6 28 15 48 26 NO 1023,3 17 60 0,0
25.02.2018 16:00:00 0,2 -15,4 29 16 47 25 NO 1023,2 11 60 0,0
25.02.2018 15:00:00 0,3 -15,3 34 18 55 30 NO 1023,2 13 60 0,0
25.02.2018 14:00:00 0,1 -15,5 29 15 50 27 ONO 1023,4 13 60 0,0
25.02.2018 13:00:00 -0,5 -15,6 33 18 53 28 O 1023,7 14 60 0,0
25.02.2018 12:00:00 -1,4 -14,2 34 18 52 28 ONO 1024,3 14 60 0,0
25.02.2018 11:00:00 -2,7 -13,0 32 17 58 31 ONO 1024,6 14 60 0,0
25.02.2018 10:00:00 -4,3 -12,7 41 22 62 34 ONO 1024,4 7 60 0,0
25.02.2018 09:00:00 -5,2 -12,6 43 23 61 33 ONO 1024,1 9 60 0,0
25.02.2018 08:00:00 -5,8 -13,0 40 22 57 31 ONO 1024,0 16 11 0,0
25.02.2018 07:00:00 -5,7 -12,7 40 22 56 30 ONO 1023,2 33 0 0,0
25.02.2018 06:00:00 -5,3 -12,5 36 19 61 33 ONO 1023,0 37 0 0,0
25.02.2018 05:00:00 -4,8 -12,5 42 23 62 34 ONO 1022,3 34 0 0,0
25.02.2018 04:00:00 -4,2 -11,5 39 21 63 34 ONO 1022,0 36 0 0,0
25.02.2018 03:00:00 -3,4 -11,4 34 19 56 30 ONO 1021,8 38 0 0,0
25.02.2018 02:00:00 -3,1 -11,1 30 16 50 27 ONO 1021,9 39 0 0,0
25.02.2018 01:00:00 -2,5 -11,0 31 17 50 27 ONO 1021,5 35 0 0,0
25.02.2018 00:00:00 -2,0 -10,6 33 18 51 27 ONO 1021,4 30 0 0,0
24.02.2018 23:00:00 -1,8 -9,9 33 18 55 30 ONO 1021,2 24 0 0,0
24.02.2018 22:00:00 -1,5 -9,2 32 18 51 28 ONO 1020,8 20 0 0,0
24.02.2018 21:00:00 -0,7 -8,9 37 20 51 28 ONO 1020,3 22 0 0,0
24.02.2018 20:00:00 0,1 -7,9 36 19 55 30 ONO 1019,8 23 0 0,0
24.02.2018 19:00:00 1,2 -8,1 32 17 56 31 NO 1019,3 24 0 0,0
24.02.2018 18:00:00 2,7 -9,6 32 17 51 28 ONO 1018,2 28 43 0,0
24.02.2018 17:00:00 4,2 -10,3 34 19 55 30 ONO 1017,6 13 60 0,0
24.02.2018 16:00:00 4,9 -10,4 46 25 71 39 O 1017,3 7 60 0,0
24.02.2018 15:00:00 5,2 -11,4 53 28 72 39 O 1016,7 6 60 0,0
24.02.2018 14:00:00 4,7 -12,7 44 24 65 35 ONO 1016,7 4,4 60 0,0
24.02.2018 13:00:00 3,8 -11,0 46 25 71 38 O 1016,8 4,9 60 0,0
24.02.2018 12:00:00 2,9 -10,1 40 22 64 35 ONO 1017,2 7 60 0,0
24.02.2018 11:00:00 0,1 -9,6 46 25 66 36 ONO 1017,5 8 60 0,0
24.02.2018 10:00:00 -1,4 -8,6 36 19 63 34 ONO 1017,9 11 60 0,0
24.02.2018 09:00:00 -2,9 -8,8 33 18 48 26 ONO 1018,0 11 60 0,0
24.02.2018 08:00:00 -3,9 -8,8 29 16 39 21 NO 1017,7 9 9 0,0
24.02.2018 07:00:00 -4,0 -8,7 26 14 37 20 ONO 1017,5 10 0 0,0
24.02.2018 06:00:00 -3,7 -8,6 24 13 39 21 ONO 1017,1 10 0 0,0
24.02.2018 05:00:00 -3,4 -8,5 28 15 42 23 ONO 1016,7 10 0 0,0
24.02.2018 04:00:00 -3,2 -8,5 26 14 44 24 NO 1016,5 10 0 0,0
24.02.2018 03:00:00 -2,9 -8,4 24 13 35 19 NO 1016,8 10 0 0,0
24.02.2018 02:00:00 -2,6 -8,5 24 13 34 19 NO 1016,8 11 0 0,0
24.02.2018 01:00:00 -2,3 -8,4 23 13 35 19 ONO 1016,8 13 0 0,0
24.02.2018 00:00:00 -1,8 -8,8 24 13 38 20 NO 1016,7 14 0 0,0
23.02.2018 23:00:00 -1,9 -8,6 18 10 32 18 ONO 1017,1 14 0 0,0
23.02.2018 22:00:00 -1,7 -8,5 19 10 34 18 ONO 1017,2 13 0 0,0
23.02.2018 21:00:00 -1,4 -8,2 20 11 32 17 NO 1017,0 13 0 0,0
23.02.2018 20:00:00 -0,9 -8,4 22 12 33 18 NO 1016,9 15 0 0,0
23.02.2018 19:00:00 -0,1 -8,1 20 11 39 21 ONO 1016,8 16 0 0,0
23.02.2018 18:00:00 0,9 -7,6 27 15 44 24 ONO 1015,9 15 40 0,0
23.02.2018 17:00:00 2,1 -6,7 27 15 44 24 ONO 1015,9 17 60 0,0
23.02.2018 16:00:00 2,6 -6,8 27 15 44 24 ONO 1015,9 15 60 0,0
23.02.2018 15:00:00 2,4 -7,0 32 17 49 26 ONO 1015,8 13 60 0,0
23.02.2018 14:00:00 2,4 -7,2 32 17 49 26 NO 1016,0 13 60 0,0
23.02.2018 13:00:00 1,7 -7,4 32 18 49 26 ONO 1016,6 11 60 0,0
23.02.2018 12:00:00 0,8 -8,0 30 16 49 26 ONO 1017,2 12 60 0,0
23.02.2018 11:00:00 -0,5 -8,7 28 15 49 26 NO 1017,6 13 60 0,0
23.02.2018 10:00:00 -1,6 -8,8 36 20 54 29 ONO 1017,7 13 60 0,0
23.02.2018 09:00:00 -2,6 -8,5 28 15 42 23 NO 1017,7 15 60 0,0
23.02.2018 08:00:00 -4,1 -8,4 18 10 31 17 NO 1017,7 17 7 0,0
23.02.2018 07:00:00 -3,9 -8,6 23 13 38 20 NO 1017,4 19 0 0,0
23.02.2018 06:00:00 -3,4 -8,7 23 13 36 20 ONO 1017,3 21 0 0,0
23.02.2018 05:00:00 -3,2 -8,5 24 13 36 19 NO 1017,1 20 0 0,0
23.02.2018 04:00:00 -2,9 -8,4 25 13 41 22 ONO 1017,2 21 0 0,0
23.02.2018 03:00:00 -2,7 -8,2 25 14 41 22 NO 1017,5 21 0 0,0
23.02.2018 02:00:00 -2,5 -8,0 25 14 39 21 NO 1017,6 21 0 0,0
23.02.2018 01:00:00 -2,0 -7,9 27 15 41 22 NO 1017,8 21 0 0,0
23.02.2018 00:00:00 -1,5 -7,8 29 16 46 25 NO 1018,2 22 0 0,0
22.02.2018 23:00:00 -1,0 -7,6 29 16 42 23 NO 1018,2 21 0 0,0
22.02.2018 22:00:00 -0,7 -7,1 25 13 39 21 NO 1018,1 22 0 0,0
22.02.2018 21:00:00 -0,3 -7,1 24 13 40 21 NO 1018,1 22 0 0,0
22.02.2018 20:00:00 0,2 -7,1 27 15 42 23 NO 1018,1 23 0 0,0
22.02.2018 19:00:00 0,7 -7,1 29 16 46 25 NO 1017,9 23 0 0,0
22.02.2018 18:00:00 1,4 -6,9 30 16 50 27 NO 1017,4 24 35 0,0
22.02.2018 17:00:00 2,1 -6,7 34 18 52 28 NO 1017,0 25 29 0,0
22.02.2018 16:00:00 2,7 -7,0 29 16 47 26 NO 1016,9 23 10 0,0
22.02.2018 15:00:00 3,0 -8,1 34 18 53 29 ONO 1016,9 10 56 0,0
22.02.2018 14:00:00 3,5 -7,9 34 18 55 30 NO 1017,2 11 60 0,0
22.02.2018 13:00:00 2,7 -8,4 38 21 56 31 ONO 1017,6 9 60 0,0
22.02.2018 12:00:00 1,8 -8,1 36 20 61 33 ONO 1018,1 11 60 0,0
22.02.2018 11:00:00 1,0 -7,0 35 19 50 27 ONO 1018,5 11 60 0,0
22.02.2018 10:00:00 -0,3 -6,1 29 15 46 25 NO 1018,9 11 60 0,0
22.02.2018 09:00:00 -1,7 -5,9 23 13 39 21 NO 1019,2 11 60 0,0
22.02.2018 08:00:00 -3,2 -6,3 20 11 30 16 NO 1019,3 9 5 0,0
22.02.2018 07:00:00 -3,4 -6,4 23 12 30 16 NO 1019,1 7 0 0,0
22.02.2018 06:00:00 -3,1 -6,2 19 10 29 16 NNO 1019,2 6 0 0,0
22.02.2018 05:00:00 -3,0 -6,1 18 10 27 14 NNO 1019,1 5 0 0,0
22.02.2018 04:00:00 -2,7 -5,8 18 10 27 14 NNO 1019,4 4,7 0 0,0
22.02.2018 03:00:00 -2,5 -5,8 14 8 32 17 NNO 1019,9 5 0 0,0
22.02.2018 02:00:00 -2,1 -5,6 18 10 35 19 NNO 1020,0 7 0 0,0
22.02.2018 01:00:00 -2,0 -5,3 19 10 24 13 NO 1020,3 7 0 0,0
22.02.2018 00:00:00 -1,3 -5,2 19 10 26 14 NO 1020,5 8 0 0,0
21.02.2018 23:00:00 -1,0 -5,2 16 9 30 16 NO 1020,7 9 0 0,0
21.02.2018 22:00:00 -0,3 -5,5 22 12 29 16 NO 1020,6 11 0 0,0
21.02.2018 21:00:00 -0,2 -5,2 22 12 34 18 NO 1020,6 12 0 0,0
21.02.2018 20:00:00 0,3 -4,3 25 13 38 20 NO 1020,6 10 0 0,0
21.02.2018 19:00:00 1,1 -4,6 19 10 24 13 NO 1020,3 11 0 0,0
21.02.2018 18:00:00 2,3 -5,1 16 9 34 18 ONO 1019,8 16 38 0,0
21.02.2018 17:00:00 5,4 -6,2 25 13 39 21 NO 1019,2 13 60 0,0
21.02.2018 16:00:00 5,9 -6,1 28 15 38 21 NNO 1019,2 11 60 0,0
21.02.2018 15:00:00 5,9 -4,6 25 13 36 19 NO 1019,6 8 60 0,0
21.02.2018 14:00:00 5,0 -3,6 24 13 36 20 NO 1020,3 7 60 0,0
21.02.2018 13:00:00 4,3 -3,2 24 13 36 20 NO 1021,0 6 60 0,0
21.02.2018 12:00:00 2,9 -3,2 22 12 33 18 NO 1021,5 6 60 0,0
21.02.2018 11:00:00 1,3 -3,4 24 13 35 19 NO 1022,3 5 60 0,0
21.02.2018 10:00:00 0,2 -4,1 20 11 29 16 NO 1022,4 4,6 60 0,0
21.02.2018 09:00:00 -1,2 -4,2 17 9 23 12 NO 1021,9 4,6 60 0,0
21.02.2018 08:00:00 -2,6 -5,1 14 7 25 13 NNO 1022,1 4,0 3 0,0
21.02.2018 07:00:00 -2,6 -5,9 16 9 32 18 NO 1021,7 5 0 0,0
21.02.2018 06:00:00 -1,2 -4,5 22 12 30 16 ONO 1021,0 6 0 0,0
21.02.2018 05:00:00 -0,8 -4,3 20 11 30 16 NO 1021,1 6 0 0,0
21.02.2018 04:00:00 -1,7 -4,2 11 6 21 11 NNO 1021,6 4,3 0 0,0
21.02.2018 03:00:00 -3,3 -6,1 12 7 23 12 NO 1021,2 4,3 0 0,0
21.02.2018 02:00:00 -2,5 -4,7 13 7 18 10 NO 1021,0 4,2 0 0,0
21.02.2018 01:00:00 -1,4 -3,6 14 8 21 11 ONO 1020,4 5 0 0,0
21.02.2018 00:00:00 -1,4 -3,6 13 7 17 9 NO 1020,0 6 0 0,0
20.02.2018 23:00:00 -1,4 -3,8 6 4 9 5 ONO 1019,8 7 0 0,0
20.02.2018 22:00:00 -2,2 -4,5 8 4 12 6 ZO 1019,5 7 0 0,0
20.02.2018 21:00:00 -0,5 -3,2 9 5 11 6 ZO 1019,1 7 0 0,0
20.02.2018 20:00:00 0,7 -3,6 6 3 9 5 ZO 1018,6 9 0 0,0
20.02.2018 19:00:00 0,2 -3,2 4 2 9 5 OZO 1018,3 9 0 0,0
20.02.2018 18:00:00 1,1 -3,0 8 4 13 7 NNO 1017,7 9 0 0,0
20.02.2018 17:00:00 2,7 -4,3 10 6 18 10 NO 1017,4 11 19 0,0
20.02.2018 16:00:00 3,4 -3,9 10 6 20 11 N 1017,3 12 21 0,0
20.02.2018 15:00:00 2,9 -4,3 12 7 23 12 ONO 1016,9 13 0 0,0
20.02.2018 14:00:00 2,7 -3,9 13 7 21 11 ONO 1017,1 9 24 0,0
20.02.2018 13:00:00 2,0 -4,3 10 5 22 12 ONO 1018,0 13 22 0,0
20.02.2018 12:00:00 1,4 -4,3 15 8 24 13 O 1018,1 11 10 0,0
20.02.2018 11:00:00 0,8 -4,2 19 10 25 14 ONO 1018,0 7 46 0,0
20.02.2018 10:00:00 0,2 -3,2 17 9 26 14 ONO 1017,9 7 11 0,0
20.02.2018 09:00:00 -0,6 -2,8 15 8 22 12 ONO 1017,9 4,8 0 0,0
20.02.2018 08:00:00 -1,4 -2,5 10 5 15 8 ONO 1018,0 3,8 0 0,0
20.02.2018 07:00:00 -1,4 -2,5 11 6 13 7 ONO 1017,5 4,1 0 0,0
20.02.2018 06:00:00 -1,3 -2,6 5 3 11 6 NNO 1017,4 4,2 0 0,0
20.02.2018 05:00:00 -2,2 -3,9 10 5 11 6 ONO 1017,5 4,3 0 0,0
20.02.2018 04:00:00 -1,5 -2,9 10 5 11 6 O 1017,2 5 0 0,0
20.02.2018 03:00:00 -0,7 -2,3 11 6 13 7 O 1017,2 6 0 0,0
20.02.2018 02:00:00 -0,7 -2,1 10 5 11 6 O 1017,4 6 0 0,0
20.02.2018 01:00:00 -0,6 -2,0 8 4 9 5 O 1017,7 6 0 0,0
20.02.2018 00:00:00 -0,2 -1,9 7 4 9 5 O 1017,6 4,9 0 0,0
19.02.2018 23:00:00 0,1 -1,8 4 2 5 3 O 1017,8 6 0 0,0
19.02.2018 22:00:00 0,0 -2,1 4 2 6 3 ZZO 1018,3 8 0 0,0
19.02.2018 21:00:00 0,2 -1,7 4 2 6 3 Z 1018,5 8 0 0,0
19.02.2018 20:00:00 0,3 -1,6 6 3 8 4 Z 1018,6 8 0 0,0

tt = temperatuur
td = dauwpunt
ff = windsnelheid
fx = windstoten
dd = windrichting
ppp = luchtdruk
vv = zicht
sd = Zonneschijnduur
rr = neerslag

Weerstations in de omgeving